Council Bluffs, IA

7:16 PM CST on November 19, 2019 (GMT -0600)
Council Bluffs Municipal

Weather History for KCBF - October, 2019

Change the Weather History Date:

Wednesday, October 23, 2019

  Actual Average Record
Temperature  
Mean Temperature 48 °F -  
Max Temperature 55 °F 59 °F 77 °F (2010)
Min Temperature 41 °F 41 °F 28 °F (2006)
Degree Days  
Heating Degree Days 17    
Moisture  
Dew Point 40 °F    
Average Humidity 78    
Maximum Humidity 100    
Minimum Humidity 57    
Precipitation  
Precipitation 0.00 in - - ()
Sea Level Pressure  
Sea Level Pressure 29.89 in    
Wind  
Wind Speed 7 mph ()    
Max Wind Speed 18 mph    
Max Gust Speed 26 mph    
Visibility 10.0 miles    
Events      
Averages and records for this station are not official NWS values.
T = Trace of Precipitation, MM = Missing Value Source: Averaged Metar Reports

Daily Weather History Graph

Daily Weather History Graph

Search for Another Location

Airport or City:

Astronomy

Oct. 23, 2019 Rise Set
Actual Time 7:43 AM CDT 6:30 PM CDT
Civil Twilight 7:15 AM CDT 6:58 PM CDT
Nautical Twilight 6:43 AM CDT 7:30 PM CDT
Astronomical Twilight 6:11 AM CDT 8:02 PM CDT
Moon 1:58 AM CDT (10/23) 4:25 PM CDT (10/23)
Length of Visible Light 11h 43m
Length of Day
10h 46m
Waning Crescent, 26% of the Moon is Illuminated
Oct 23
Waning Crescent
Oct 27
New
Nov 4
First Quarter
Nov 12
Full
Nov 19
Last Quarter

Hourly Weather History & Observations

Time (CDT) Temp. Windchill Dew Point Humidity Pressure Visibility Wind Dir Wind Speed Gust Speed Precip Events Conditions
12:15 AM 44.6 °F 40.7 °F 33.8 °F 66% 29.83 in 10.0 mi SSW 6.9 mph - N/A   Mostly Cloudy
12:35 AM 44.6 °F 42.2 °F 33.8 °F 66% 29.82 in 10.0 mi SW 4.6 mph - N/A   Scattered Clouds
12:55 AM 44.6 °F 40.2 °F 33.8 °F 66% 29.82 in 10.0 mi SSW 8.1 mph - N/A   Mostly Cloudy
1:15 AM 44.6 °F 40.2 °F 33.8 °F 66% 29.82 in 10.0 mi SSW 8.1 mph - N/A   Overcast
1:35 AM 46.4 °F 41.9 °F 33.8 °F 62% 29.82 in 10.0 mi SSW 9.2 mph - N/A   Overcast
1:55 AM 46.4 °F 42.4 °F 33.8 °F 62% 29.82 in 10.0 mi SSW 8.1 mph - N/A   Overcast
2:15 AM 46.4 °F 42.4 °F 32.0 °F 57% 29.81 in 10.0 mi SSW 8.1 mph - N/A   Overcast
2:35 AM 46.4 °F - 33.8 °F 62% 29.80 in 10.0 mi Calm Calm - N/A   Overcast
2:55 AM 44.6 °F 42.2 °F 35.6 °F 71% 29.80 in 10.0 mi SSW 4.6 mph - N/A   Overcast
3:15 AM 46.4 °F - 33.8 °F 62% 29.79 in 10.0 mi Calm Calm - N/A   Overcast
3:35 AM 46.4 °F - 33.8 °F 62% 29.77 in 10.0 mi Calm Calm - N/A   Overcast
3:55 AM 46.4 °F 42.9 °F 37.4 °F 71% 29.80 in 10.0 mi South 6.9 mph - N/A   Overcast
4:15 AM 46.4 °F 42.9 °F 37.4 °F 71% 29.79 in 9.0 mi SSW 6.9 mph - N/A   Overcast
4:35 AM 46.4 °F 42.9 °F 39.2 °F 76% 29.79 in 10.0 mi SSW 6.9 mph - N/A   Overcast
4:55 AM 44.6 °F 42.2 °F 39.2 °F 81% 29.77 in 10.0 mi East 4.6 mph - N/A   Mostly Cloudy
5:15 AM 44.6 °F 42.2 °F 41.0 °F 87% 29.78 in 10.0 mi SE 4.6 mph - N/A   Overcast
5:35 AM 44.6 °F 43.1 °F 42.8 °F 93% 29.78 in 10.0 mi ENE 3.5 mph - N/A   Overcast
5:55 AM 44.6 °F 43.1 °F 42.8 °F 93% 29.79 in 10.0 mi ENE 3.5 mph - N/A   Overcast
6:15 AM 44.6 °F 41.4 °F 42.8 °F 93% 29.78 in 10.0 mi SE 5.8 mph - N/A   Mostly Cloudy
6:35 AM 44.6 °F 42.2 °F 42.8 °F 93% 29.78 in 10.0 mi SE 4.6 mph - N/A   Partly Cloudy
6:55 AM 44.6 °F 40.7 °F 42.8 °F 93% 29.78 in 10.0 mi ESE 6.9 mph - N/A   Scattered Clouds
7:15 AM 42.8 °F 39.3 °F 42.8 °F 100% 29.79 in 10.0 mi NNE 5.8 mph - N/A   Mostly Cloudy
7:35 AM 42.8 °F 40.1 °F 42.8 °F 100% 29.79 in 10.0 mi East 4.6 mph - N/A   Scattered Clouds
7:55 AM 42.8 °F 38.6 °F 41.0 °F 93% 29.77 in 10.0 mi ESE 6.9 mph - N/A   Clear
8:15 AM 42.8 °F 38.6 °F 41.0 °F 93% 29.77 in 10.0 mi ESE 6.9 mph - N/A   Clear
8:35 AM 44.6 °F 40.7 °F 42.8 °F 93% 29.77 in 10.0 mi East 6.9 mph - N/A   Clear
8:55 AM 46.4 °F 41.9 °F 42.8 °F 87% 29.77 in 10.0 mi ESE 9.2 mph - N/A   Clear
9:15 AM 46.4 °F 42.4 °F 42.8 °F 87% 29.78 in 10.0 mi SE 8.1 mph - N/A   Clear
9:35 AM 48.2 °F - 42.8 °F 82% 29.78 in 10.0 mi SSE 11.5 mph - N/A   Clear
9:55 AM 48.2 °F - 42.8 °F 82% 29.77 in 10.0 mi SE 10.4 mph - N/A   Clear
10:15 AM 50.0 °F - 41.0 °F 71% 29.77 in 10.0 mi SE 10.4 mph - N/A   Clear
10:35 AM 51.8 °F - 41.0 °F 67% 29.77 in 10.0 mi South 8.1 mph - N/A   Clear
10:55 AM 51.8 °F - 41.0 °F 67% 29.75 in 10.0 mi SE 3.5 mph 11.5 mph N/A   Clear
11:15 AM 53.6 °F - 41.0 °F 62% 29.76 in 10.0 mi SSW 5.8 mph - N/A   Clear
11:35 AM 53.6 °F - 39.2 °F 58% 29.77 in 10.0 mi WSW 10.4 mph - N/A   Mostly Cloudy
11:55 AM 53.6 °F - 39.2 °F 58% 29.77 in 10.0 mi WNW 3.5 mph 11.5 mph N/A   Mostly Cloudy
12:15 PM 53.6 °F - 39.2 °F 58% 29.77 in 10.0 mi NW 5.8 mph - N/A   Mostly Cloudy
12:35 PM 53.6 °F - 39.2 °F 58% 29.79 in 10.0 mi NW 5.8 mph - N/A   Scattered Clouds
12:55 PM 55.4 °F - 41.0 °F 58% 29.79 in 10.0 mi WNW 9.2 mph - N/A   Clear
1:15 PM 55.4 °F - 41.0 °F 58% 29.80 in 10.0 mi NW 15.0 mph 23.0 mph N/A   Partly Cloudy
1:35 PM 55.4 °F - 41.0 °F 58% 29.81 in 10.0 mi NNW 13.8 mph 19.6 mph N/A   Mostly Cloudy
1:55 PM 53.6 °F - 44.6 °F 72% 29.82 in 10.0 mi NNW 17.3 mph 23.0 mph N/A   Mostly Cloudy
2:15 PM 55.4 °F - 42.8 °F 63% 29.83 in 10.0 mi NNW 13.8 mph 21.9 mph N/A   Clear
2:35 PM 55.4 °F - 44.6 °F 67% 29.84 in 10.0 mi NNW 15.0 mph - N/A   Mostly Cloudy
2:55 PM 55.4 °F - 42.8 °F 63% 29.84 in 10.0 mi NNW 13.8 mph 20.7 mph N/A   Mostly Cloudy
3:15 PM 55.4 °F - 42.8 °F 63% 29.86 in 10.0 mi NW 12.7 mph 18.4 mph N/A   Mostly Cloudy
3:35 PM 55.4 °F - 44.6 °F 67% 29.87 in 10.0 mi NW 15.0 mph 21.9 mph N/A   Mostly Cloudy
3:55 PM 53.6 °F - 42.8 °F 67% 29.90 in 10.0 mi North - - N/A   Overcast
4:15 PM 53.6 °F - 42.8 °F 67% 29.91 in 10.0 mi NNW 18.4 mph 26.5 mph N/A   Mostly Cloudy
4:35 PM 51.8 °F - 42.8 °F 71% 29.93 in 10.0 mi North - - N/A   Partly Cloudy
4:55 PM 51.8 °F - 42.8 °F 71% 29.94 in 10.0 mi NNW 11.5 mph 20.7 mph N/A   Mostly Cloudy
5:15 PM 51.8 °F - 42.8 °F 71% 29.95 in 10.0 mi NNW 13.8 mph - N/A   Partly Cloudy
5:35 PM 50.0 °F - 41.0 °F 71% 29.96 in 10.0 mi NNW 15.0 mph - N/A   Clear
5:55 PM 48.2 °F - 41.0 °F 76% 29.98 in 10.0 mi NNW 15.0 mph - N/A   Mostly Cloudy
6:15 PM 46.4 °F 41.5 °F 41.0 °F 81% 29.99 in 10.0 mi NNW 10.4 mph 17.3 mph N/A   Mostly Cloudy
6:35 PM 46.4 °F 41.5 °F 42.8 °F 87% 30.00 in 10.0 mi North 10.4 mph - N/A   Mostly Cloudy
6:55 PM 46.4 °F 41.5 °F 44.6 °F 93% 30.02 in 10.0 mi North 10.4 mph - N/A   Overcast
7:15 PM 44.6 °F 38.4 °F 42.8 °F 93% 30.04 in 10.0 mi North 12.7 mph - N/A   Mostly Cloudy
7:35 PM 44.6 °F 39.2 °F 42.8 °F 93% 30.06 in 10.0 mi NNE 10.4 mph - N/A   Overcast
7:55 PM 44.6 °F 38.8 °F 42.8 °F 93% 30.07 in 10.0 mi North 11.5 mph 17.3 mph N/A   Overcast
8:15 PM 44.6 °F 39.2 °F 42.8 °F 93% 30.10 in 10.0 mi North 10.4 mph 17.3 mph N/A   Overcast
8:35 PM 42.8 °F 36.6 °F 42.8 °F 100% 30.10 in 10.0 mi North 11.5 mph - N/A   Overcast
8:55 PM 42.8 °F 36.6 °F 42.8 °F 100% 30.11 in 10.0 mi North 11.5 mph - N/A   Overcast
9:15 PM 42.8 °F 36.6 °F 42.8 °F 100% 30.11 in 10.0 mi NNE 11.5 mph - N/A   Overcast
9:35 PM 42.8 °F 37.0 °F 41.0 °F 93% 30.14 in 10.0 mi North 10.4 mph - N/A   Overcast
9:55 PM 42.8 °F 36.6 °F 41.0 °F 93% 30.16 in 10.0 mi North 11.5 mph - N/A   Overcast
10:15 PM 42.8 °F 38.0 °F 41.0 °F 93% 30.19 in 10.0 mi NNW 8.1 mph 13.8 mph N/A   Overcast
10:35 PM 42.8 °F 37.5 °F 41.0 °F 93% 30.20 in 10.0 mi NNW 9.2 mph - N/A   Overcast
10:55 PM 42.8 °F 37.5 °F 39.2 °F 87% 30.20 in 10.0 mi North 9.2 mph 15.0 mph N/A   Overcast
11:15 PM 42.8 °F 36.2 °F 39.2 °F 87% 30.22 in 10.0 mi NNW 12.7 mph - N/A   Overcast
11:35 PM 41.0 °F 33.5 °F 39.2 °F 93% 30.22 in 10.0 mi NNW 13.8 mph - N/A   Overcast
11:55 PM 41.0 °F 35.2 °F 39.2 °F 93% 30.23 in 10.0 mi NNW 9.2 mph 17.3 mph N/A   Overcast